Погода в Могадишо

Сомали     2°02′38″N   45°21′15″E
темп.,
°C
ветер,
м/с
пор.,
м/с
влажн.,
%
обл.,
%
осадки,
мм/ч
давл.,
гПа
погр.,
м
25 октября, пн
пн2500:00+26вюв678260 0.0 1013708
03:00+26вюв6778100 0.0 1011817
06:00+27вюв677499 0.0 1013918
09:00+27вюв6771100 0.0 1015993
12:00+29вюв666453 0.0 10131066
15:00+28вюв55685 0.0 1012738
18:00+27вюв567682 0.0 1012597
21:00+26вюв67785 0.0 1014632
26 октября, вт
вт2600:00+26юв678061 0.0 1013608
03:00+26юв458126 0.0 1012456
06:00+26юв348330 0.1 1014358
09:00+28юв447589 0.1 1015717
12:00+28ююв546949 0.0 1013727
15:00+28ю547016 0.0 1011710
18:00+27ююв898161 0.0 1012650
21:00+26ююв688099 0.0 1014714
27 октября, ср
ср2700:00+26ю687757 0.0 1014774
03:00+26ю468111 0.0 1012525
06:00+26ю468447 0.1 1013461
09:00+28ю557233 0.1 1015839
12:00+28ю557037 0.0 1012674
15:00+28ю556938 0.0 1011813
18:00+27ю69784 0.0 1011687
21:00+27ю47845 0.0 1013616
28 октября, чт
чт2800:00+26ю578428 0.1 1012547
03:00+26ю568118 0.1 1011533
06:00+26ююв34820 0.3 1013360
09:00+28ю44726 0.3 1014694
12:00+28ю546917 0.0 1011829
15:00+28ю55735 0.1 1009667
18:00+27ю578026 0.4 1010695
21:00+26ююв4582100 2.1 1012446
29 октября, пт
пт2900:00+25ссз4580100 8.4 1012258
03:00+24сз3381100 12.1 1011222
06:00+25ююв2378100 0.0 1011179
09:00+27в337114 0.0 1013576
12:00+28юв437038 0.1 1011651
15:00+28юв547185 0.9 1009681
18:00+27ююв557584 0.1 1010548
21:00+27вюв347598 1.0 1012506